Sauk Centre, MN

1:53 AM CST on February 14, 2016 (GMT -0600)
Sauk Centre

Weather History for KD39 - March, 2014

Change the Weather History Date:

Monday, March 31, 2014

  Actual Average Record
Temperature  
Mean Temperature 36 °F -  
Max Temperature 43 °F - - ()
Min Temperature 29 °F - - ()
Degree Days  
Heating Degree Days 28    
Moisture  
Dew Point 34 °F    
Average Humidity 83    
Maximum Humidity 96    
Minimum Humidity 76    
Precipitation  
Precipitation 0.00 in - - ()
Sea Level Pressure  
Sea Level Pressure 29.51 in    
Wind  
Wind Speed 13 mph (ENE)    
Max Wind Speed 22 mph    
Max Gust Speed 31 mph    
Visibility 9 miles    
Events Rain , Thunderstorm    
T = Trace of Precipitation, MM = Missing Value Source: NWS Daily Summary

Daily Weather History Graph

Daily Weather History Graph

Search for Another Location

Airport or City:

Trip Planner

Search our weather history database for the weather conditions in past years. The results will help you decide how hot, cold, wet, or windy it might be!

Date:

Astronomy

Mar. 31, 2014 Rise Set
Actual Time 7:01 AM CDT 7:46 PM CDT
Civil Twilight 6:31 AM CDT 8:16 PM CDT
Nautical Twilight 5:56 AM CDT 8:52 PM CDT
Astronomical Twilight 5:18 AM CDT 9:30 PM CDT
Moon 7:22 AM CDT (3/31) 9:11 PM CDT (3/31)
Length of Visible Light 13h 45m
Length of Day
12h 45m
New Moon, 1% of the Moon is Illuminated
Mar 31
New Moon
Apr 7
First Quarter
Apr 15
Full
Apr 22
Last Quarter
Apr 29
New

Hourly Weather History & Observations

Time (CDT) Temp. Windchill Dew Point Humidity Pressure Visibility Wind Dir Wind Speed Gust Speed Precip Events Conditions
12:12 AM 41.7 °F 34.1 °F 34.7 °F 76% 29.73 in 10.0 mi ENE 15.0 mph - N/A   Clear
12:32 AM 41.4 °F 34.3 °F 34.3 °F 76% 29.72 in 10.0 mi ENE 12.7 mph 19.6 mph N/A   Clear
12:52 AM 41.0 °F 33.9 °F 34.5 °F 78% 29.71 in 10.0 mi ENE 12.7 mph - N/A   Clear
1:13 AM 40.6 °F 33.4 °F 34.7 °F 79% 29.71 in 10.0 mi ENE 12.7 mph - N/A   Clear
1:32 AM 41.0 °F 35.2 °F 34.7 °F 78% 29.71 in 10.0 mi ENE 9.2 mph - N/A   Clear
1:52 AM 40.6 °F 33.4 °F 34.7 °F 79% 29.70 in 10.0 mi ENE 12.7 mph - N/A   Clear
2:11 AM 40.1 °F 33.6 °F 34.3 °F 80% 29.69 in 10.0 mi ENE 10.4 mph - N/A   Clear
2:32 AM 40.1 °F 32.7 °F 34.3 °F 80% 29.68 in 10.0 mi ENE 12.7 mph - N/A   Clear
2:52 AM 40.5 °F 33.6 °F 34.7 °F 80% 29.67 in 10.0 mi ENE 11.5 mph - N/A   Clear
3:12 AM 40.1 °F 33.2 °F 34.3 °F 80% 29.66 in 10.0 mi ENE 11.5 mph - N/A   Clear
3:32 AM 39.7 °F 32.7 °F 34.2 °F 80% 29.65 in 10.0 mi ENE 11.5 mph - N/A   Clear
3:52 AM 39.4 °F 32.7 °F 34.0 °F 81% 29.65 in 10.0 mi East 10.4 mph - N/A   Clear
4:12 AM 39.2 °F 32.0 °F 33.8 °F 81% 29.65 in 10.0 mi ENE 11.5 mph 16.1 mph N/A   Clear
4:32 AM 38.8 °F 32.1 °F 33.8 °F 82% 29.65 in 10.0 mi East 10.4 mph - N/A   Clear
4:53 AM 38.8 °F 32.6 °F 33.4 °F 81% 29.64 in 10.0 mi East 9.2 mph - N/A   Clear
5:12 AM 38.8 °F 32.1 °F 33.4 °F 81% 29.62 in 10.0 mi East 10.4 mph - N/A   Clear
5:32 AM 39.4 °F 32.3 °F 33.3 °F 79% 29.62 in 10.0 mi East 11.5 mph - N/A   Clear
5:53 AM 39.2 °F 32.0 °F 33.1 °F 79% 29.61 in 10.0 mi East 11.5 mph - N/A   Clear
6:12 AM 39.2 °F 32.0 °F 32.9 °F 78% 29.60 in 10.0 mi ENE 11.5 mph - N/A   Clear
6:32 AM 39.0 °F 31.4 °F 32.9 °F 79% 29.59 in 10.0 mi ENE 12.7 mph - N/A   Clear
6:53 AM 38.5 °F 31.1 °F 32.9 °F 80% 29.60 in 10.0 mi East 11.5 mph - N/A   Clear
7:12 AM 38.3 °F 30.9 °F 32.5 °F 80% 29.61 in 10.0 mi East 11.5 mph - N/A   Clear
7:32 AM 37.9 °F 30.5 °F 32.5 °F 81% 29.60 in 10.0 mi ENE 11.5 mph - N/A   Clear
7:52 AM 38.5 °F 31.1 °F 32.5 °F 79% 29.59 in 10.0 mi East 11.5 mph - N/A   Clear
8:12 AM 38.7 °F 31.4 °F 32.5 °F 79% 29.59 in 10.0 mi East 11.5 mph - N/A   Clear
8:32 AM 39.2 °F 31.2 °F 32.9 °F 78% 29.58 in 10.0 mi East 13.8 mph 18.4 mph N/A   Clear
8:52 AM 39.2 °F 32.5 °F 32.9 °F 78% 29.59 in 10.0 mi East 10.4 mph 17.3 mph N/A   Scattered Clouds
9:12 AM 39.2 °F 30.8 °F 32.9 °F 78% 29.57 in 10.0 mi ENE 15.0 mph - N/A   Mostly Cloudy
9:32 AM 39.6 °F 33.5 °F 32.9 °F 77% 29.57 in 10.0 mi East 9.2 mph - N/A   Overcast
9:52 AM 39.6 °F 32.1 °F 32.9 °F 77% 29.56 in 10.0 mi ENE 12.7 mph 18.4 mph N/A   Overcast
10:12 AM 40.1 °F 33.6 °F 33.1 °F 76% 29.57 in 10.0 mi East 10.4 mph - N/A   Light Drizzle
10:32 AM 40.1 °F 33.6 °F 34.0 °F 79% 29.57 in 10.0 mi ENE 10.4 mph 16.1 mph N/A   Light Drizzle
10:52 AM 40.3 °F 33.4 °F 34.0 °F 78% 29.56 in 10.0 mi East 11.5 mph - N/A   Overcast
11:12 AM 41.0 °F 33.9 °F 34.7 °F 78% 29.55 in 10.0 mi East 12.7 mph - N/A   Overcast
11:32 AM 40.5 °F 33.2 °F 34.9 °F 80% 29.55 in 10.0 mi ENE 12.7 mph - N/A   Overcast
11:52 AM 40.3 °F 32.6 °F 35.2 °F 82% 29.54 in 10.0 mi ENE 13.8 mph - N/A   Drizzle
12:12 PM 39.7 °F 31.2 °F 35.6 °F 85% 29.52 in 10.0 mi ENE 16.1 mph - N/A Rain Light Rain
12:33 PM 40.3 °F 32.2 °F 35.8 °F 84% 29.51 in 10.0 mi ENE 15.0 mph 21.9 mph N/A   Overcast
12:52 PM 42.4 °F 34.7 °F 36.7 °F 80% 29.50 in 10.0 mi East 16.1 mph 21.9 mph N/A   Overcast
1:12 PM 41.9 °F 33.7 °F 36.7 °F 82% 29.49 in 10.0 mi East 17.3 mph 23.0 mph N/A Thunderstorm Overcast
1:33 PM 41.5 °F 33.5 °F 36.5 °F 82% 29.47 in 10.0 mi ENE 16.1 mph 21.9 mph N/A   Overcast
1:52 PM 42.3 °F 34.4 °F 37.0 °F 82% 29.47 in 10.0 mi East 16.1 mph 19.6 mph N/A   Overcast
2:12 PM 43.2 °F 35.6 °F 37.8 °F 81% 29.46 in 10.0 mi East 16.1 mph - N/A   Overcast
2:33 PM 42.3 °F 35.5 °F 37.8 °F 84% 29.46 in 7.0 mi East 12.7 mph - N/A   Overcast
2:52 PM 41.4 °F 34.0 °F 37.4 °F 86% 29.45 in 7.0 mi ENE 13.8 mph 19.6 mph N/A   Overcast
3:12 PM 40.8 °F 32.9 °F 37.4 °F 88% 29.43 in 7.0 mi ENE 15.0 mph - N/A   Overcast
3:32 PM 40.1 °F 33.2 °F 36.9 °F 88% 29.42 in 7.0 mi ENE 11.5 mph - N/A   Overcast
3:52 PM 40.1 °F 32.0 °F 36.9 °F 88% 29.41 in 7.0 mi ENE 15.0 mph 20.7 mph N/A   Overcast
4:13 PM 40.1 °F 31.6 °F 36.7 °F 88% 29.39 in 7.0 mi ENE 16.1 mph 21.9 mph N/A   Overcast
4:32 PM 40.1 °F 31.6 °F 36.5 °F 87% 29.39 in 7.0 mi ENE 16.1 mph 19.6 mph N/A Thunderstorm Overcast
4:52 PM 40.3 °F 31.9 °F 36.5 °F 86% 29.37 in 7.0 mi ENE 16.1 mph 21.9 mph N/A   Overcast
5:13 PM 40.1 °F 31.0 °F 36.1 °F 86% 29.37 in 7.0 mi ENE 18.4 mph 21.9 mph N/A Thunderstorm Thunderstorm
5:32 PM 40.1 °F 31.3 °F 36.0 °F 85% 29.36 in 7.0 mi ENE 17.3 mph - N/A   Overcast
5:52 PM 40.1 °F 31.3 °F 36.0 °F 85% 29.35 in 7.0 mi ENE 17.3 mph 21.9 mph N/A Thunderstorm Overcast
6:12 PM 40.1 °F 31.3 °F 36.0 °F 85% 29.35 in 7.0 mi ENE 17.3 mph 23.0 mph N/A   Overcast
6:32 PM 39.4 °F 31.8 °F 36.1 °F 88% 29.35 in 5.0 mi ENE 12.7 mph - N/A Rain Light Rain
6:52 PM 39.2 °F 32.0 °F 36.1 °F 89% 29.36 in 7.0 mi NE 11.5 mph - N/A Rain Light Rain
7:12 PM 39.2 °F 33.6 °F 36.0 °F 88% 29.36 in 7.0 mi NE 8.1 mph - N/A   Overcast
7:32 PM 38.7 °F 31.4 °F 35.8 °F 89% 29.35 in 7.0 mi NNE 11.5 mph 19.6 mph N/A Thunderstorm Overcast
7:53 PM 37.9 °F 28.9 °F 35.6 °F 91% 29.33 in 7.0 mi NNE 16.1 mph - N/A   Overcast
8:12 PM 37.9 °F 29.6 °F 35.2 °F 90% 29.33 in 7.0 mi NNE 13.8 mph 19.6 mph N/A   Mostly Cloudy
8:32 PM 38.3 °F 29.0 °F 35.6 °F 90% 29.34 in 10.0 mi NNE 17.3 mph 27.6 mph N/A   Overcast
8:52 PM 36.3 °F 28.0 °F 34.2 °F 92% 29.36 in 7.0 mi North 12.7 mph 17.3 mph N/A   Overcast
9:12 PM 35.1 °F 25.5 °F 33.4 °F 94% 29.37 in 10.0 mi North 15.0 mph 23.0 mph N/A   Overcast
9:32 PM 35.2 °F 25.8 °F 33.3 °F 92% 29.38 in 10.0 mi North 15.0 mph 21.9 mph N/A   Overcast
9:52 PM 35.4 °F 26.4 °F 33.4 °F 92% 29.39 in 10.0 mi North 13.8 mph 21.9 mph N/A   Overcast
10:12 PM 35.1 °F 26.4 °F 33.1 °F 92% 29.40 in 10.0 mi North 12.7 mph 21.9 mph N/A   Overcast
10:32 PM 34.9 °F 25.7 °F 32.5 °F 91% 29.41 in 10.0 mi North 13.8 mph 25.3 mph N/A   Overcast
10:52 PM 33.6 °F 22.6 °F 32.0 °F 94% 29.41 in 10.0 mi North 18.4 mph 29.9 mph N/A   Overcast
11:12 PM 32.0 °F 20.8 °F 30.9 °F 96% 29.42 in 10.0 mi North 17.3 mph 31.1 mph N/A   Light Drizzle
11:32 PM 30.6 °F 17.9 °F 28.6 °F 92% 29.44 in 7.0 mi NNW 20.7 mph 27.6 mph N/A   Overcast
11:52 PM 29.1 °F 15.7 °F 27.1 °F 92% 29.45 in 7.0 mi NNW 21.9 mph 27.6 mph N/A   Overcast